Weather in Smolino

Russia / Nizhny Novgorod Oblast'     56°16′27″N   43°05′30″E
temp.,
°C
wind,
m/s
gust,
m/s
humid.,
%
clouds,
%
prec.,
mm/h
press.,
hPa
HPBL,
m
19 april, mon
mon1900:00+5ene51184100 0.0 1025534
03:00+3ene51176100 0.0 1026476
06:00+2ene51175100 0.0 1026489
09:00+4ene6962100 0.0 1027670
12:00+8e7947100 0.0 10261333
15:00+9e7939100 0.0 10261719
18:00+7e5104363 0.0 10271549
21:00+4e512494 0.0 1027510
20 april, tue
tue2000:00+3e513525 0.0 1027642
03:00+1e5125765 0.0 1027497
06:00+1e6145898 0.0 1027554
09:00+5e71351100 0.0 1027903
12:00+9ese7124697 0.0 10251337
15:00+11ese7114292 0.0 10231578
18:00+9ese71346100 0.0 10211351
21:00+7ese81548100 0.0 10191023
21 april, wed
wed2100:00+6ese81652100 0.1 10161043
03:00+3ese91984100 3.5 10121024
06:00+3ese91887100 2.3 1010975
09:00+4ese91786100 2.4 10081124
12:00+6se81887100 0.1 10061209
15:00+7ssw7138691 0.4 1007999
18:00+6ssw71281100 0.1 10111090
21:00+5ssw61182100 0.1 10141095
22 april, thu
thu2200:00+5ssw41085100 0.0 1015612
03:00+5sse3983100 0.0 1016257
06:00+5sse51290100 0.2 1017553
09:00+9ssw587447 0.4 1017900
12:00+11sw61063100 0.1 10181474
15:00+11sw51067100 0.1 10191366
18:00+11sw36715 0.0 1020451
21:00+7s34885 0.0 102060
23 april, fri
fri2300:00+6s389163 0.0 1020133
03:00+6s388871 0.1 1020158
06:00+7s2979100 0.0 1020191
09:00+13s475849 0.0 1021478
12:00+16s564177 0.0 10202368
15:00+16sse464646 0.0 10181878
18:00+14sse35526 0.0 1017162
21:00+10se310718 0.0 1017206